| time (UTC) | temp F | wind direction | speed knots | gust knots | rain 1hr in | rain 24hr in | rain mn in | humidity % | barometer mb |
| 20260902070217 | 60 | 81 | 0.0 | 2.6 | 0.00 | 0.00 | 0.00 | 74 | 1022.7 |
| 20260902065503 | 57 | 0 | 0.0 | 0.0 | 0.00 | 0.00 | 0.00 | 62 | 1022.8 |
| 20260902065003 | 56 | 0 | 0.0 | 0.0 | 0.00 | 0.00 | 0.00 | 62 | 1022.7 |
| 20260902064503 | 55 | 0 | 0.0 | 0.0 | 0.00 | 0.00 | 0.00 | 63 | 1022.8 |
| 20260902064003 | 55 | 0 | 0.0 | 0.0 | 0.00 | 0.00 | 0.00 | 61 | 1022.9 |
| 20260902063503 | 55 | 0 | 0.0 | 0.0 | 0.00 | 0.00 | 0.00 | 57 | 1022.9 |
| 20260902063219 | 54 | 0 | 0.0 | 0.0 | 0.00 | 0.00 | 0.00 | 55 | 1022.8 |
| 20260902062503 | 54 | 0 | 0.0 | 0.0 | 0.00 | 0.00 | 0.00 | 48 | 1022.9 |
| 20260902062003 | 54 | 0 | 0.0 | 0.0 | 0.00 | 0.00 | 0.00 | 48 | 1022.8 |
| 20260902061503 | 53 | 0 | 0.0 | 0.0 | 0.00 | 0.00 | 0.00 | 48 | 1022.8 |
| 20260902061003 | 52 | 0 | 0.0 | 0.0 | 0.00 | 0.00 | 0.00 | 49 | 1022.8 |
| 20260902060503 | 52 | 0 | 0.0 | 0.0 | 0.00 | 0.00 | 0.00 | 49 | 1022.8 |
| 20260902060217 | 51 | 340 | 0.0 | 0.9 | 0.00 | 0.00 | 0.00 | 49 | 1022.7 |
| 20260902055503 | 50 | 340 | 0.0 | 0.9 | 0.00 | 0.00 | 0.00 | 49 | 1022.8 |
| 20260902055003 | 50 | 343 | 0.0 | 0.9 | 0.00 | 0.00 | 0.00 | 50 | 1022.8 |
| 20260902054503 | 49 | 344 | 0.9 | 2.6 | 0.00 | 0.00 | 0.00 | 50 | 1022.8 |
| 20260902054216 | 49 | 345 | 0.9 | 2.6 | 0.00 | 0.00 | 0.00 | 50 | 1022.7 |
| 20260902053503 | 48 | 344 | 0.0 | 1.7 | 0.00 | 0.00 | 0.00 | 50 | 1022.6 |
| 20260902053003 | 48 | 343 | 0.9 | 2.6 | 0.00 | 0.00 | 0.00 | 51 | 1022.6 |
| 20260902052503 | 48 | 344 | 0.0 | 2.6 | 0.00 | 0.00 | 0.00 | 51 | 1022.7 |
| 20260902052003 | 47 | 0 | 0.0 | 0.0 | 0.00 | 0.00 | 0.00 | 51 | 1022.7 |
| 20260902051504 | 47 | 0 | 0.0 | 0.0 | 0.00 | 0.00 | 0.00 | 51 | 1022.7 |
| 20260902051003 | 47 | 0 | 0.0 | 0.0 | 0.00 | 0.00 | 0.00 | 52 | 1022.7 |
| 20260902050719 | 47 | 0 | 0.0 | 0.0 | 0.00 | 0.00 | 0.00 | 52 | 1022.7 |
| 20260902050216 | 47 | 0 | 0.0 | 0.0 | 0.00 | 0.00 | 0.00 | 52 | 1022.6 |
| 20260902045717 | 47 | 0 | 0.0 | 0.0 | 0.00 | 0.00 | 0.00 | 52 | 1022.6 |
| 20260902045003 | 46 | 0 | 0.0 | 0.0 | 0.00 | 0.00 | 0.00 | 52 | 1022.6 |
| 20260902044503 | 46 | 0 | 0.0 | 0.0 | 0.00 | 0.00 | 0.00 | 52 | 1022.6 |
| 20260902044216 | 46 | 0 | 0.0 | 0.0 | 0.00 | 0.00 | 0.00 | 52 | 1022.6 |
| 20260902043503 | 46 | 0 | 0.0 | 0.0 | 0.00 | 0.00 | 0.00 | 52 | 1022.6 |
| 20260902043218 | 46 | 0 | 0.0 | 0.0 | 0.00 | 0.00 | 0.00 | 52 | 1022.5 |
| 20260902042503 | 46 | 0 | 0.0 | 0.0 | 0.00 | 0.00 | 0.00 | 52 | 1022.5 |
| 20260902042003 | 46 | 0 | 0.0 | 0.0 | 0.00 | 0.00 | 0.00 | 53 | 1022.5 |
| 20260902041717 | 46 | 0 | 0.0 | 0.0 | 0.00 | 0.00 | 0.00 | 52 | 1022.5 |
| 20260902041003 | 46 | 0 | 0.0 | 0.0 | 0.00 | 0.00 | 0.00 | 52 | 1022.5 |
| 20260902040503 | 46 | 0 | 0.0 | 0.0 | 0.00 | 0.00 | 0.00 | 53 | 1022.5 |
| 20260902040003 | 46 | 0 | 0.0 | 0.0 | 0.00 | 0.00 | 0.00 | 53 | 1022.5 |
| 20260902035503 | 46 | 0 | 0.0 | 0.0 | 0.00 | 0.00 | 0.00 | 53 | 1022.5 |
| 20260902035003 | 46 | 0 | 0.0 | 0.0 | 0.00 | 0.00 | 0.00 | 53 | 1022.5 |
| 20260902034503 | 46 | 345 | 0.0 | 0.9 | 0.00 | 0.00 | 0.00 | 53 | 1022.5 |
| 20260902034003 | 46 | 343 | 0.0 | 0.9 | 0.00 | 0.00 | 0.00 | 53 | 1022.5 |
| 20260902033717 | 47 | 344 | 0.0 | 0.9 | 0.00 | 0.00 | 0.00 | 53 | 1022.5 |
| 20260902033003 | 47 | 343 | 0.0 | 0.9 | 0.00 | 0.00 | 0.00 | 53 | 1022.4 |
| 20260902032503 | 47 | 345 | 0.0 | 0.9 | 0.00 | 0.00 | 0.00 | 53 | 1022.4 |
| 20260902032003 | 47 | 345 | 0.0 | 1.7 | 0.00 | 0.00 | 0.00 | 53 | 1022.4 |
| 20260902031503 | 47 | 344 | 0.9 | 2.6 | 0.00 | 0.00 | 0.00 | 53 | 1022.3 |
| 20260902031003 | 47 | 344 | 1.7 | 3.5 | 0.00 | 0.00 | 0.00 | 53 | 1022.3 |
| 20260902030503 | 47 | 345 | 2.6 | 3.5 | 0.00 | 0.00 | 0.00 | 53 | 1022.3 |
| 20260902030003 | 47 | 345 | 0.9 | 3.5 | 0.00 | 0.00 | 0.00 | 53 | 1022.3 |
| 20260902025503 | 47 | 343 | 0.0 | 1.7 | 0.00 | 0.00 | 0.00 | 53 | 1022.2 |
| 20260902025003 | 47 | 343 | 0.0 | 1.7 | 0.00 | 0.00 | 0.00 | 53 | 1022.2 |
| 20260902024718 | 47 | 341 | 0.0 | 1.7 | 0.00 | 0.00 | 0.00 | 53 | 1022.2 |
| 20260902024003 | 47 | 344 | 0.9 | 1.7 | 0.00 | 0.00 | 0.00 | 53 | 1022.3 |
| 20260902023716 | 47 | 344 | 1.7 | 3.5 | 0.00 | 0.00 | 0.00 | 53 | 1022.3 |
| 20260902023003 | 47 | 342 | 2.6 | 3.5 | 0.00 | 0.00 | 0.00 | 54 | 1022.4 |
| 20260902022503 | 48 | 339 | 0.9 | 3.5 | 0.00 | 0.00 | 0.00 | 53 | 1022.4 |
| 20260902022003 | 48 | 336 | 0.0 | 1.7 | 0.00 | 0.00 | 0.00 | 53 | 1022.3 |
| 20260902021503 | 48 | 338 | 0.0 | 0.9 | 0.00 | 0.00 | 0.00 | 54 | 1022.3 |
| 20260902021003 | 48 | 336 | 0.0 | 0.9 | 0.00 | 0.00 | 0.00 | 53 | 1022.3 |
| 20260902020503 | 48 | 336 | 0.9 | 2.6 | 0.00 | 0.00 | 0.00 | 54 | 1022.3 |
| 20260902020003 | 48 | 335 | 0.9 | 2.6 | 0.00 | 0.00 | 0.00 | 54 | 1022.4 |
| 20260902015504 | 48 | 333 | 0.0 | 1.7 | 0.00 | 0.00 | 0.00 | 54 | 1022.3 |
| 20260902015003 | 48 | 0 | 0.0 | 0.0 | 0.00 | 0.00 | 0.00 | 54 | 1022.4 |
| 20260902014503 | 48 | 0 | 0.0 | 0.0 | 0.00 | 0.00 | 0.00 | 54 | 1022.4 |
| 20260902014219 | 48 | 0 | 0.0 | 0.0 | 0.00 | 0.00 | 0.00 | 54 | 1022.4 |
| 20260902013503 | 48 | 0 | 0.0 | 0.0 | 0.00 | 0.00 | 0.00 | 54 | 1022.4 |
| 20260902013003 | 48 | 0 | 0.0 | 0.0 | 0.00 | 0.00 | 0.00 | 54 | 1022.4 |
| 20260902012503 | 48 | 0 | 0.0 | 0.0 | 0.00 | 0.00 | 0.00 | 54 | 1022.4 |
| 20260902012004 | 48 | 0 | 0.0 | 0.0 | 0.00 | 0.00 | 0.00 | 54 | 1022.4 |
| 20260902011503 | 48 | 0 | 0.0 | 0.0 | 0.00 | 0.00 | 0.00 | 54 | 1022.4 |
| 20260902011003 | 48 | 317 | 0.0 | 0.9 | 0.00 | 0.00 | 0.00 | 54 | 1022.4 |
| 20260902010718 | 48 | 325 | 0.0 | 0.9 | 0.00 | 0.00 | 0.00 | 54 | 1022.4 |
| 20260902010003 | 48 | 334 | 0.0 | 0.9 | 0.00 | 0.00 | 0.00 | 54 | 1022.4 |
| 20260902005503 | 49 | 337 | 0.0 | 0.9 | 0.00 | 0.00 | 0.00 | 54 | 1022.4 |
| 20260902005003 | 49 | 0 | 0.0 | 0.0 | 0.00 | 0.00 | 0.00 | 54 | 1022.4 |
| 20260902004718 | 49 | 317 | 0.0 | 0.9 | 0.00 | 0.00 | 0.00 | 54 | 1022.4 |
| 20260902004219 | 49 | 330 | 0.0 | 0.9 | 0.00 | 0.00 | 0.00 | 55 | 1022.3 |
| 20260902003503 | 49 | 0 | 0.0 | 0.0 | 0.00 | 0.00 | 0.00 | 54 | 1022.4 |
| 20260902003003 | 49 | 0 | 0.0 | 0.0 | 0.00 | 0.00 | 0.00 | 54 | 1022.4 |
| 20260902002503 | 49 | 324 | 0.0 | 0.9 | 0.00 | 0.00 | 0.00 | 54 | 1022.4 |
| 20260902002003 | 49 | 324 | 0.0 | 0.9 | 0.00 | 0.00 | 0.00 | 54 | 1022.4 |
| 20260902001503 | 49 | 332 | 0.0 | 0.9 | 0.00 | 0.00 | 0.00 | 54 | 1022.4 |
| 20260902001003 | 49 | 329 | 0.9 | 1.7 | 0.00 | 0.00 | 0.00 | 55 | 1022.4 |
| 20260902000503 | 50 | 331 | 0.9 | 2.6 | 0.00 | 0.00 | 0.00 | 55 | 1022.4 |
| 20260902000003 | 50 | 333 | 0.9 | 2.6 | 0.00 | 0.00 | 0.00 | 55 | 1022.4 |
| 20260901235503 | 50 | 334 | 1.7 | 2.6 | 0.00 | 0.00 | 0.00 | 55 | 1022.4 |
| 20260901235003 | 50 | 334 | 1.7 | 2.6 | 0.00 | 0.00 | 0.00 | 55 | 1022.4 |
| 20260901234503 | 50 | 334 | 0.9 | 2.6 | 0.00 | 0.00 | 0.00 | 56 | 1022.4 |
| 20260901234218 | 50 | 334 | 0.9 | 2.6 | 0.00 | 0.00 | 0.00 | 56 | 1022.4 |
| 20260901233503 | 50 | 333 | 0.9 | 2.6 | 0.00 | 0.00 | 0.00 | 57 | 1022.4 |
| 20260901233003 | 50 | 335 | 0.0 | 2.6 | 0.00 | 0.00 | 0.00 | 57 | 1022.3 |
| 20260901232717 | 50 | 0 | 0.0 | 0.0 | 0.00 | 0.00 | 0.00 | 57 | 1022.3 |
| 20260901232003 | 50 | 0 | 0.0 | 0.0 | 0.00 | 0.00 | 0.00 | 57 | 1022.4 |
| 20260901231503 | 50 | 0 | 0.0 | 0.0 | 0.00 | 0.00 | 0.00 | 57 | 1022.4 |
| 20260901231216 | 50 | 0 | 0.0 | 0.0 | 0.00 | 0.00 | 0.00 | 57 | 1022.4 |
| 20260901230717 | 51 | 0 | 0.0 | 0.0 | 0.00 | 0.00 | 0.00 | 57 | 1022.4 |
| 20260901230003 | 51 | 0 | 0.0 | 0.0 | 0.00 | 0.00 | 0.00 | 57 | 1022.5 |
| 20260901225503 | 51 | 0 | 0.0 | 0.0 | 0.00 | 0.00 | 0.00 | 57 | 1022.5 |
| 20260901225003 | 51 | 0 | 0.0 | 0.0 | 0.00 | 0.00 | 0.00 | 57 | 1022.5 |
| 20260901224717 | 51 | 0 | 0.0 | 0.0 | 0.00 | 0.00 | 0.00 | 57 | 1022.5 |
| 20260901224218 | 51 | 0 | 0.0 | 0.0 | 0.00 | 0.00 | 0.00 | 57 | 1022.5 |
| 20260901223503 | 51 | 0 | 0.0 | 0.0 | 0.00 | 0.00 | 0.00 | 57 | 1022.5 |
| 20260901223003 | 51 | 0 | 0.0 | 0.0 | 0.00 | 0.00 | 0.00 | 58 | 1022.5 |
| 20260901222503 | 51 | 0 | 0.0 | 0.0 | 0.00 | 0.00 | 0.00 | 58 | 1022.6 |
| 20260901222218 | 52 | 330 | 0.0 | 1.7 | 0.00 | 0.00 | 0.00 | 58 | 1022.5 |
| 20260901221503 | 52 | 326 | 0.9 | 1.7 | 0.00 | 0.00 | 0.00 | 58 | 1022.6 |
| 20260901221003 | 52 | 323 | 0.9 | 2.6 | 0.00 | 0.00 | 0.00 | 58 | 1022.5 |
| 20260901220717 | 52 | 322 | 1.7 | 2.6 | 0.00 | 0.00 | 0.00 | 58 | 1022.5 |
| 20260901220004 | 52 | 319 | 0.9 | 2.6 | 0.00 | 0.00 | 0.00 | 59 | 1022.5 |
| 20260901215503 | 52 | 0 | 0.0 | 0.0 | 0.00 | 0.00 | 0.00 | 59 | 1022.5 |
| 20260901215003 | 52 | 0 | 0.0 | 0.0 | 0.00 | 0.00 | 0.00 | 59 | 1022.5 |
| 20260901214503 | 52 | 0 | 0.0 | 0.0 | 0.00 | 0.00 | 0.00 | 59 | 1022.5 |
| 20260901214003 | 52 | 316 | 0.0 | 0.9 | 0.00 | 0.00 | 0.00 | 60 | 1022.5 |
| 20260901213719 | 52 | 316 | 0.0 | 0.9 | 0.00 | 0.00 | 0.00 | 60 | 1022.5 |
| 20260901213003 | 53 | 316 | 0.9 | 1.7 | 0.00 | 0.00 | 0.00 | 61 | 1022.5 |
| 20260901212503 | 53 | 316 | 0.0 | 1.7 | 0.00 | 0.00 | 0.00 | 61 | 1022.5 |
| 20260901212217 | 53 | 316 | 0.0 | 1.7 | 0.00 | 0.00 | 0.00 | 61 | 1022.5 |
| 20260901211503 | 53 | 0 | 0.0 | 0.0 | 0.00 | 0.00 | 0.00 | 62 | 1022.4 |
| 20260901211003 | 53 | 0 | 0.0 | 0.0 | 0.00 | 0.00 | 0.00 | 62 | 1022.4 |
| 20260901210503 | 53 | 0 | 0.0 | 0.0 | 0.00 | 0.00 | 0.00 | 63 | 1022.3 |
| 20260901210003 | 54 | 0 | 0.0 | 0.0 | 0.00 | 0.00 | 0.00 | 63 | 1022.4 |
| 20260901205718 | 54 | 0 | 0.0 | 0.0 | 0.00 | 0.00 | 0.00 | 64 | 1022.4 |
| 20260901205219 | 54 | 0 | 0.0 | 0.0 | 0.00 | 0.00 | 0.00 | 64 | 1022.3 |
| 20260901204503 | 54 | 0 | 0.0 | 0.0 | 0.00 | 0.00 | 0.00 | 65 | 1022.3 |
| 20260901204003 | 54 | 0 | 0.0 | 0.0 | 0.00 | 0.00 | 0.00 | 65 | 1022.4 |
| 20260901203503 | 54 | 0 | 0.0 | 0.0 | 0.00 | 0.00 | 0.00 | 66 | 1022.4 |
| 20260901203004 | 55 | 0 | 0.0 | 0.0 | 0.00 | 0.00 | 0.00 | 66 | 1022.4 |
| 20260901202503 | 55 | 0 | 0.0 | 0.0 | 0.00 | 0.00 | 0.00 | 67 | 1022.4 |
| 20260901202003 | 55 | 316 | 0.0 | 0.9 | 0.00 | 0.00 | 0.00 | 68 | 1022.3 |
| 20260901201503 | 56 | 316 | 0.0 | 0.9 | 0.00 | 0.00 | 0.00 | 68 | 1022.3 |
| 20260901201219 | 56 | 316 | 0.0 | 0.9 | 0.00 | 0.00 | 0.00 | 68 | 1022.3 |
| 20260901200503 | 56 | 0 | 0.0 | 0.0 | 0.00 | 0.00 | 0.00 | 69 | 1022.3 |
| 20260901200003 | 56 | 0 | 0.0 | 0.0 | 0.00 | 0.00 | 0.00 | 69 | 1022.3 |
| 20260901195503 | 56 | 0 | 0.0 | 0.0 | 0.00 | 0.00 | 0.00 | 69 | 1022.3 |
| 20260901195003 | 56 | 0 | 0.0 | 0.0 | 0.00 | 0.00 | 0.00 | 69 | 1022.4 |
| 20260901194503 | 56 | 0 | 0.0 | 0.0 | 0.00 | 0.00 | 0.00 | 69 | 1022.3 |
| 20260901194217 | 56 | 0 | 0.0 | 0.0 | 0.00 | 0.00 | 0.00 | 70 | 1022.3 |
| 20260901193718 | 56 | 316 | 0.0 | 1.7 | 0.00 | 0.00 | 0.00 | 70 | 1022.3 |
| 20260901193219 | 56 | 316 | 0.9 | 2.6 | 0.00 | 0.00 | 0.00 | 71 | 1022.3 |
| 20260901192716 | 57 | 316 | 0.9 | 2.6 | 0.00 | 0.00 | 0.00 | 71 | 1022.3 |
| 20260901192003 | 57 | 0 | 0.0 | 0.0 | 0.00 | 0.00 | 0.00 | 72 | 1022.2 |
| 20260901191503 | 58 | 0 | 0.0 | 0.0 | 0.00 | 0.00 | 0.00 | 73 | 1022.2 |
| 20260901191219 | 58 | 0 | 0.0 | 0.0 | 0.00 | 0.00 | 0.00 | 73 | 1022.1 |
| 20260901190503 | 58 | 0 | 0.0 | 0.0 | 0.00 | 0.00 | 0.00 | 73 | 1022.1 |
| 20260901190003 | 58 | 0 | 0.0 | 0.0 | 0.00 | 0.00 | 0.00 | 74 | 1022.1 |
| 20260901185503 | 59 | 0 | 0.0 | 0.0 | 0.00 | 0.00 | 0.00 | 74 | 1022.1 |
| 20260901185003 | 60 | 0 | 0.0 | 0.0 | 0.00 | 0.00 | 0.00 | 74 | 1022.1 |
| 20260901184503 | 60 | 0 | 0.0 | 0.0 | 0.00 | 0.00 | 0.00 | 74 | 1022.0 |
| 20260901184216 | 60 | 0 | 0.0 | 0.0 | 0.00 | 0.00 | 0.00 | 74 | 1022.0 |
| 20260901183503 | 61 | 0 | 0.0 | 0.0 | 0.00 | 0.00 | 0.00 | 73 | 1021.9 |
| 20260901183003 | 61 | 0 | 0.0 | 0.0 | 0.00 | 0.00 | 0.00 | 73 | 1021.9 |
| 20260901182503 | 61 | 0 | 0.0 | 0.0 | 0.00 | 0.00 | 0.00 | 73 | 1021.8 |
| 20260901182003 | 62 | 0 | 0.0 | 0.0 | 0.00 | 0.00 | 0.00 | 73 | 1021.7 |
| 20260901181717 | 62 | 0 | 0.0 | 0.0 | 0.00 | 0.00 | 0.00 | 73 | 1021.8 |
| 20260901181003 | 63 | 0 | 0.0 | 0.0 | 0.00 | 0.00 | 0.00 | 72 | 1021.6 |
| 20260901180503 | 64 | 0 | 0.0 | 0.0 | 0.00 | 0.00 | 0.00 | 71 | 1021.6 |
| 20260901180007 | 64 | 0 | 0.0 | 0.0 | 0.00 | 0.00 | 0.00 | 69 | 1021.6 |
| 20260901175503 | 65 | 0 | 0.0 | 0.0 | 0.00 | 0.00 | 0.00 | 67 | 1021.5 |
| 20260901175003 | 65 | 0 | 0.0 | 0.0 | 0.00 | 0.00 | 0.00 | 67 | 1021.5 |
| 20260901174503 | 66 | 0 | 0.0 | 0.0 | 0.00 | 0.00 | 0.00 | 65 | 1021.5 |
| 20260901174003 | 67 | 0 | 0.0 | 0.0 | 0.00 | 0.00 | 0.00 | 63 | 1021.5 |
| 20260901173503 | 68 | 316 | 0.0 | 1.7 | 0.00 | 0.00 | 0.00 | 62 | 1021.4 |
| 20260901173003 | 68 | 316 | 0.9 | 2.6 | 0.00 | 0.00 | 0.00 | 61 | 1021.4 |
| 20260901172503 | 69 | 316 | 0.9 | 2.6 | 0.00 | 0.00 | 0.00 | 59 | 1021.4 |
| 20260901172003 | 69 | 316 | 1.7 | 2.6 | 0.00 | 0.00 | 0.00 | 57 | 1021.4 |
| 20260901171503 | 70 | 316 | 1.7 | 2.6 | 0.00 | 0.00 | 0.00 | 56 | 1021.4 |
| 20260901171218 | 70 | 316 | 1.7 | 2.6 | 0.00 | 0.00 | 0.00 | 56 | 1021.3 |
| 20260901170503 | 70 | 316 | 1.7 | 3.5 | 0.00 | 0.00 | 0.00 | 55 | 1021.3 |
| 20260901170003 | 70 | 315 | 1.7 | 3.5 | 0.00 | 0.00 | 0.00 | 55 | 1021.3 |
| 20260901165503 | 71 | 308 | 1.7 | 3.5 | 0.00 | 0.00 | 0.00 | 55 | 1021.3 |
| 20260901165003 | 71 | 292 | 1.7 | 3.5 | 0.00 | 0.00 | 0.00 | 54 | 1021.3 |
| 20260901164503 | 71 | 275 | 1.7 | 5.2 | 0.00 | 0.00 | 0.00 | 55 | 1021.3 |
| 20260901164003 | 71 | 278 | 2.6 | 6.1 | 0.00 | 0.00 | 0.00 | 54 | 1021.3 |
| 20260901163503 | 71 | 285 | 3.5 | 6.1 | 0.00 | 0.00 | 0.00 | 53 | 1021.3 |
| 20260901163218 | 71 | 295 | 2.6 | 6.1 | 0.00 | 0.00 | 0.00 | 53 | 1021.3 |
| 20260901162503 | 71 | 300 | 2.6 | 6.1 | 0.00 | 0.00 | 0.00 | 54 | 1021.4 |
| 20260901162224 | 71 | 296 | 2.6 | 6.1 | 0.00 | 0.00 | 0.00 | 54 | 1021.4 |
| 20260901161717 | 71 | 299 | 2.6 | 6.1 | 0.00 | 0.00 | 0.00 | 54 | 1021.4 |
| 20260901161218 | 71 | 311 | 3.5 | 7.0 | 0.00 | 0.00 | 0.00 | 54 | 1021.5 |
| 20260901160503 | 71 | 312 | 4.3 | 7.8 | 0.00 | 0.00 | 0.00 | 53 | 1021.5 |
| 20260901160003 | 71 | 292 | 4.3 | 7.8 | 0.00 | 0.00 | 0.00 | 54 | 1021.5 |
| 20260901155503 | 71 | 283 | 4.3 | 8.7 | 0.00 | 0.00 | 0.00 | 54 | 1021.5 |
| 20260901155217 | 71 | 281 | 5.2 | 8.7 | 0.00 | 0.00 | 0.00 | 54 | 1021.5 |
| 20260901154507 | 71 | 309 | 4.3 | 8.7 | 0.00 | 0.00 | 0.00 | 54 | 1021.5 |
| 20260901154003 | 71 | 308 | 5.2 | 10.4 | 0.00 | 0.00 | 0.00 | 54 | 1021.6 |
| 20260901153503 | 71 | 305 | 5.2 | 10.4 | 0.00 | 0.00 | 0.00 | 54 | 1021.6 |
| 20260901153003 | 70 | 311 | 4.3 | 9.6 | 0.00 | 0.00 | 0.00 | 55 | 1021.5 |
| 20260901152503 | 70 | 316 | 4.3 | 7.8 | 0.00 | 0.00 | 0.00 | 56 | 1021.5 |
| 20260901152003 | 70 | 305 | 5.2 | 10.4 | 0.00 | 0.00 | 0.00 | 55 | 1021.6 |
| 20260901151503 | 70 | 287 | 7.0 | 12.2 | 0.00 | 0.00 | 0.00 | 55 | 1021.5 |
| 20260901151003 | 71 | 290 | 7.0 | 12.2 | 0.00 | 0.00 | 0.00 | 54 | 1021.6 |
| 20260901150503 | 71 | 297 | 6.1 | 11.3 | 0.00 | 0.00 | 0.00 | 54 | 1021.5 |
| 20260901150003 | 70 | 290 | 5.2 | 8.7 | 0.00 | 0.00 | 0.00 | 55 | 1021.5 |
| 20260901145503 | 70 | 299 | 4.3 | 7.8 | 0.00 | 0.00 | 0.00 | 55 | 1021.5 |
| 20260901145003 | 70 | 300 | 4.3 | 11.3 | 0.00 | 0.00 | 0.00 | 55 | 1021.4 |
| 20260901144503 | 70 | 297 | 5.2 | 11.3 | 0.00 | 0.00 | 0.00 | 57 | 1021.5 |
| 20260901144219 | 70 | 300 | 5.2 | 11.3 | 0.00 | 0.00 | 0.00 | 56 | 1021.6 |
| 20260901143503 | 70 | 298 | 6.1 | 11.3 | 0.00 | 0.00 | 0.00 | 56 | 1021.5 |
| 20260901143217 | 70 | 294 | 6.1 | 12.2 | 0.00 | 0.00 | 0.00 | 56 | 1021.6 |
| 20260901142503 | 70 | 294 | 6.1 | 12.2 | 0.00 | 0.00 | 0.00 | 55 | 1021.5 |
| 20260901142004 | 70 | 294 | 6.1 | 10.4 | 0.00 | 0.00 | 0.00 | 55 | 1021.5 |
| 20260901141503 | 70 | 293 | 6.1 | 10.4 | 0.00 | 0.00 | 0.00 | 56 | 1021.5 |
| 20260901141003 | 70 | 297 | 6.1 | 10.4 | 0.00 | 0.00 | 0.00 | 56 | 1021.5 |
| 20260901140503 | 70 | 300 | 6.1 | 11.3 | 0.00 | 0.00 | 0.00 | 54 | 1021.4 |
| 20260901140003 | 70 | 308 | 6.1 | 11.3 | 0.00 | 0.00 | 0.00 | 52 | 1021.4 |
| 20260901135503 | 70 | 320 | 7.0 | 11.3 | 0.00 | 0.00 | 0.00 | 53 | 1021.4 |
| 20260901135003 | 71 | 328 | 7.0 | 10.4 | 0.00 | 0.00 | 0.00 | 53 | 1021.4 |
| 20260901134503 | 71 | 327 | 6.1 | 11.3 | 0.00 | 0.00 | 0.00 | 53 | 1021.3 |
| 20260901134003 | 71 | 300 | 5.2 | 11.3 | 0.00 | 0.00 | 0.00 | 53 | 1021.5 |
| 20260901133503 | 71 | 278 | 6.1 | 11.3 | 0.00 | 0.00 | 0.00 | 53 | 1021.5 |
| 20260901133003 | 72 | 296 | 6.1 | 12.2 | 0.00 | 0.00 | 0.00 | 53 | 1021.4 |
| 20260901132503 | 71 | 308 | 5.2 | 12.2 | 0.00 | 0.00 | 0.00 | 55 | 1021.5 |
| 20260901132218 | 71 | 296 | 5.2 | 12.2 | 0.00 | 0.00 | 0.00 | 56 | 1021.5 |
| 20260901131719 | 70 | 276 | 5.2 | 13.9 | 0.00 | 0.00 | 0.00 | 55 | 1021.5 |
| 20260901131003 | 70 | 302 | 7.0 | 13.9 | 0.00 | 0.00 | 0.00 | 57 | 1021.5 |
| 20260901130503 | 69 | 302 | 7.0 | 13.9 | 0.00 | 0.00 | 0.00 | 59 | 1021.7 |
| 20260901130218 | 69 | 304 | 6.1 | 13.9 | 0.00 | 0.00 | 0.00 | 59 | 1021.6 |
| 20260901125507 | 70 | 326 | 6.1 | 12.2 | 0.00 | 0.00 | 0.00 | 60 | 1021.6 |
| 20260901125003 | 70 | 311 | 7.0 | 12.2 | 0.00 | 0.00 | 0.00 | 57 | 1021.5 |
| 20260901124505 | 70 | 302 | 7.0 | 11.3 | 0.00 | 0.00 | 0.00 | 58 | 1021.6 |
| 20260901124218 | 70 | 302 | 6.1 | 11.3 | 0.00 | 0.00 | 0.00 | 57 | 1021.6 |
| 20260901123503 | 70 | 319 | 5.2 | 11.3 | 0.00 | 0.00 | 0.00 | 57 | 1021.5 |
| 20260901123003 | 69 | 317 | 6.1 | 11.3 | 0.00 | 0.00 | 0.00 | 58 | 1021.6 |
| 20260901122503 | 70 | 301 | 5.2 | 10.4 | 0.00 | 0.00 | 0.00 | 58 | 1021.5 |
| 20260901122003 | 70 | 301 | 4.3 | 8.7 | 0.00 | 0.00 | 0.00 | 57 | 1021.5 |
| 20260901121503 | 70 | 314 | 3.5 | 7.8 | 0.00 | 0.00 | 0.00 | 57 | 1021.6 |
| 20260901121003 | 70 | 316 | 4.3 | 10.4 | 0.00 | 0.00 | 0.00 | 59 | 1021.6 |
| 20260901120503 | 69 | 328 | 6.1 | 10.4 | 0.00 | 0.00 | 0.00 | 60 | 1021.7 |
| 20260901120003 | 69 | 326 | 7.0 | 13.0 | 0.00 | 0.00 | 0.00 | 60 | 1021.6 |
| 20260901115503 | 69 | 300 | 8.7 | 13.9 | 0.00 | 0.00 | 0.00 | 59 | 1021.7 |
| 20260901115003 | 70 | 290 | 9.6 | 13.9 | 0.00 | 0.00 | 0.00 | 58 | 1021.7 |
| 20260901114504 | 69 | 290 | 10.4 | 16.5 | 0.00 | 0.00 | 0.00 | 57 | 1021.7 |
| 20260901114003 | 70 | 276 | 9.6 | 17.4 | 0.00 | 0.00 | 0.00 | 55 | 1021.7 |
| 20260901113503 | 70 | 278 | 8.7 | 17.4 | 0.00 | 0.00 | 0.00 | 56 | 1021.5 |
| 20260901113003 | 70 | 287 | 7.8 | 12.2 | 0.00 | 0.00 | 0.00 | 56 | 1021.5 |
| 20260901112503 | 70 | 287 | 7.0 | 12.2 | 0.00 | 0.00 | 0.00 | 56 | 1021.6 |
| 20260901112003 | 69 | 292 | 7.0 | 13.0 | 0.00 | 0.00 | 0.00 | 57 | 1021.7 |
| 20260901111503 | 69 | 289 | 7.8 | 13.0 | 0.00 | 0.00 | 0.00 | 57 | 1021.7 |
| 20260901111003 | 68 | 295 | 7.8 | 13.9 | 0.00 | 0.00 | 0.00 | 58 | 1021.6 |
| 20260901110503 | 69 | 301 | 7.0 | 13.9 | 0.00 | 0.00 | 0.00 | 56 | 1021.6 |
| 20260901110003 | 69 | 301 | 5.2 | 13.9 | 0.00 | 0.00 | 0.00 | 55 | 1021.6 |
| 20260901105719 | 69 | 306 | 6.1 | 11.3 | 0.00 | 0.00 | 0.00 | 57 | 1021.6 |
| 20260901105220 | 69 | 309 | 7.0 | 11.3 | 0.00 | 0.00 | 0.00 | 57 | 1021.6 |
| 20260901104503 | 68 | 309 | 7.0 | 12.2 | 0.00 | 0.00 | 0.00 | 57 | 1021.6 |
| 20260901104003 | 69 | 306 | 7.0 | 12.2 | 0.00 | 0.00 | 0.00 | 57 | 1021.6 |
| 20260901103503 | 69 | 306 | 7.0 | 11.3 | 0.00 | 0.00 | 0.00 | 58 | 1021.5 |
| 20260901103003 | 68 | 310 | 7.8 | 11.3 | 0.00 | 0.00 | 0.00 | 59 | 1021.7 |
| 20260901102503 | 68 | 295 | 7.0 | 11.3 | 0.00 | 0.00 | 0.00 | 59 | 1021.6 |
| 20260901102003 | 68 | 276 | 7.8 | 14.8 | 0.00 | 0.00 | 0.00 | 60 | 1021.5 |
| 20260901101503 | 68 | 276 | 7.8 | 14.8 | 0.00 | 0.00 | 0.00 | 59 | 1021.6 |
| 20260901101003 | 68 | 281 | 7.0 | 13.9 | 0.00 | 0.00 | 0.00 | 59 | 1021.6 |
| 20260901100503 | 67 | 274 | 7.0 | 13.9 | 0.00 | 0.00 | 0.00 | 60 | 1021.5 |
| 20260901100004 | 67 | 276 | 7.8 | 13.9 | 0.00 | 0.00 | 0.00 | 60 | 1021.6 |
| 20260901095504 | 67 | 291 | 6.1 | 12.2 | 0.00 | 0.00 | 0.00 | 60 | 1021.6 |
| 20260901095003 | 67 | 289 | 7.0 | 13.0 | 0.00 | 0.00 | 0.00 | 61 | 1021.5 |
| 20260901094716 | 67 | 283 | 7.8 | 13.0 | 0.00 | 0.00 | 0.00 | 61 | 1021.5 |
| 20260901094003 | 67 | 285 | 7.0 | 11.3 | 0.00 | 0.00 | 0.00 | 60 | 1021.5 |
| 20260901093503 | 67 | 291 | 6.1 | 11.3 | 0.00 | 0.00 | 0.00 | 61 | 1021.5 |
| 20260901093003 | 67 | 295 | 6.1 | 10.4 | 0.00 | 0.00 | 0.00 | 62 | 1021.5 |
| 20260901092716 | 67 | 300 | 7.0 | 12.2 | 0.00 | 0.00 | 0.00 | 61 | 1021.4 |
| 20260901092003 | 67 | 286 | 7.8 | 13.0 | 0.00 | 0.00 | 0.00 | 61 | 1021.3 |
| 20260901091503 | 67 | 275 | 7.8 | 14.8 | 0.00 | 0.00 | 0.00 | 61 | 1021.3 |
| 20260901091003 | 67 | 277 | 6.1 | 14.8 | 0.00 | 0.00 | 0.00 | 61 | 1021.4 |
| 20260901090503 | 66 | 284 | 7.8 | 14.8 | 0.00 | 0.00 | 0.00 | 62 | 1021.4 |
| 20260901090003 | 66 | 273 | 8.7 | 14.8 | 0.00 | 0.00 | 0.00 | 62 | 1021.4 |
| 20260901085503 | 67 | 276 | 7.0 | 14.8 | 0.00 | 0.00 | 0.00 | 61 | 1021.4 |
| 20260901085003 | 66 | 289 | 7.0 | 11.3 | 0.00 | 0.00 | 0.00 | 63 | 1021.3 |
| 20260901084716 | 66 | 294 | 7.0 | 12.2 | 0.00 | 0.00 | 0.00 | 62 | 1021.3 |
| 20260901084003 | 66 | 293 | 7.8 | 13.0 | 0.00 | 0.00 | 0.00 | 63 | 1021.2 |
| 20260901083717 | 67 | 291 | 7.0 | 13.0 | 0.00 | 0.00 | 0.00 | 62 | 1021.3 |
| 20260901083003 | 66 | 288 | 7.8 | 14.8 | 0.00 | 0.00 | 0.00 | 64 | 1021.2 |
| 20260901082715 | 66 | 280 | 8.7 | 18.2 | 0.00 | 0.00 | 0.00 | 64 | 1021.2 |
| 20260901082216 | 66 | 285 | 10.4 | 18.2 | 0.00 | 0.00 | 0.00 | 63 | 1021.3 |
| 20260901081503 | 66 | 296 | 8.7 | 14.8 | 0.00 | 0.00 | 0.00 | 63 | 1021.2 |
| 20260901081003 | 66 | 291 | 7.8 | 13.9 | 0.00 | 0.00 | 0.00 | 63 | 1021.1 |
| 20260901080503 | 67 | 284 | 7.8 | 13.0 | 0.00 | 0.00 | 0.00 | 65 | 1021.1 |
| 20260901080216 | 66 | 276 | 8.7 | 17.4 | 0.00 | 0.00 | 0.00 | 64 | 1021.0 |
| 20260901075503 | 66 | 284 | 7.8 | 17.4 | 0.00 | 0.00 | 0.00 | 65 | 1020.9 |
| 20260901075003 | 66 | 299 | 7.8 | 13.0 | 0.00 | 0.00 | 0.00 | 66 | 1020.9 |
| 20260901074503 | 66 | 298 | 7.8 | 14.8 | 0.00 | 0.00 | 0.00 | 66 | 1020.8 |
| 20260901074003 | 66 | 288 | 7.8 | 14.8 | 0.00 | 0.00 | 0.00 | 67 | 1020.8 |
| 20260901073503 | 66 | 283 | 7.8 | 13.9 | 0.00 | 0.00 | 0.00 | 67 | 1020.7 |
| 20260901073003 | 66 | 285 | 7.8 | 13.9 | 0.00 | 0.00 | 0.00 | 68 | 1020.6 |
| 20260901072503 | 66 | 290 | 8.7 | 13.9 | 0.00 | 0.00 | 0.00 | 67 | 1020.6 |
| 20260901072003 | 66 | 288 | 7.0 | 13.9 | 0.00 | 0.00 | 0.00 | 68 | 1020.6 |
| 20260901071503 | 65 | 290 | 7.8 | 14.8 | 0.00 | 0.00 | 0.00 | 68 | 1020.6 |
| 20260901071218 | 65 | 292 | 7.8 | 14.8 | 0.00 | 0.00 | 0.00 | 68 | 1020.6 |
| 20260901070503 | 64 | 295 | 7.8 | 13.9 | 0.00 | 0.00 | 0.00 | 69 | 1020.5 |